This is the latest recevied weather packets stored in our database for station/object W4DEX-2. If no packets are shown the sender has not sent any weather packets the latest 10 day(s).
| Time | Temp. | Humidity | Pressure | Rain* | Wind** | Luminosity | Snow |
|---|---|---|---|---|---|---|---|
| 1778116202 | 21.67° C | 69% | 1011.8 hPa | 0 mm | 3.58 m/s, 180° | - | - |
| 1778115902 | 21.67° C | 68% | 1011.8 hPa | 0 mm | 4.02 m/s, 180° | - | - |
| 1778115603 | 22.22° C | 67% | 1011.7 hPa | 0 mm | 4.02 m/s, 180° | - | - |
| 1778115303 | 22.22° C | 65% | 1011.6 hPa | 0 mm | 4.02 m/s, 180° | - | - |
| 1778115002 | 22.22° C | 65% | 1011.5 hPa | 0 mm | 4.47 m/s, 178° | - | - |
| 1778114403 | 22.78° C | 64% | 1011.7 hPa | 0 mm | 4.92 m/s, 178° | - | - |
| 1778114102 | 22.22° C | 64% | 1011.7 hPa | 0 mm | 4.92 m/s, 181° | - | - |
| 1778113804 | 22.22° C | 64% | 1011.6 hPa | 0 mm | 4.47 m/s, 178° | - | - |
| 1778113503 | 22.78° C | 64% | 1011.7 hPa | 0 mm | 4.92 m/s, 178° | - | - |
| 1778113203 | 22.78° C | 64% | 1011.5 hPa | 0 mm | 4.92 m/s, 181° | - | - |
| 1778112903 | 22.78° C | 64% | 1011.4 hPa | 0 mm | 4.92 m/s, 176° | - | - |
| 1778112608 | 22.78° C | 63% | 1011.6 hPa | 0 mm | 4.92 m/s, 180° | - | - |
| 1778112303 | 22.78° C | 63% | 1011.4 hPa | 0 mm | 4.47 m/s, 180° | - | - |
| 1778112002 | 22.78° C | 63% | 1011.6 hPa | 0 mm | 4.47 m/s, 177° | - | - |
| 1778111702 | 22.78° C | 63% | 1011.6 hPa | 0 mm | 4.47 m/s, 180° | - | - |
| 1778111403 | 23.33° C | 62% | 1011.7 hPa | 0 mm | 4.92 m/s, 180° | - | - |
| 1778111102 | 23.33° C | 62% | 1011.7 hPa | 0 mm | 5.36 m/s, 179° | - | - |
| 1778110803 | 23.33° C | 62% | 1011.7 hPa | 0 mm | 4.47 m/s, 180° | - | - |
| 1778110502 | 23.33° C | 61% | 1011.7 hPa | 0 mm | 4.47 m/s, 181° | - | - |
| 1778110202 | 23.33° C | 61% | 1011.6 hPa | 0 mm | 4.47 m/s, 180° | - | - |
| 1778109602 | 23.33° C | 61% | 1011.7 hPa | 0 mm | 5.36 m/s, 185° | - | - |
| 1778109302 | 23.33° C | 61% | 1011.7 hPa | 0 mm | 5.36 m/s, 185° | - | - |
| 1778109003 | 23.89° C | 60% | 1011.5 hPa | 0 mm | 5.36 m/s, 174° | - | - |
| 1778108702 | 23.89° C | 60% | 1011.5 hPa | 0 mm | 5.36 m/s, 169° | - | - |
| 1778108403 | 23.89° C | 60% | 1011.6 hPa | 0 mm | 4.92 m/s, 181° | - | - |
* Rain latest hour (hover to see other rain measurements)
** Current wind speed in m/s (hover to see current wind gust speed)